Helicity
155 167 136 154 161 187 257 249 269 226 186 158 119 120 87 72 71 61 37 28 38 36 45 40 40 35 28 29 30 34 37 39 40 47 55 50 48 49 53 60 73 70 67
147 87 196 174 145 136 170 247 229 235 178 147 142 116 101 90 67 79 70 40 34 32 46 40 34 29 26 23 29 30 30 44 41 40 53 40 43 50 58 60 63 64 63
241 301 203 190 126 150 135 260 286 260 221 151 113 105 101 85 80 79 91 74 38 33 42 44 27 26 24 28 25 22 24 39 34 38 39 47 50 50 59 55 53 53 62
132 205 187 177 156 180 167 240 294 292 227 171 152 109 103 94 92 87 100 89 66 54 37 38 21 21 22 26 18 16 18 18 22 36 39 52 46 54 57 43 56 56 61
420 265 192 185 172 162 158 195 266 281 244 204 172 146 132 92 64 87 92 83 71 54 58 23 23 23 25 14 13 12 10 5 14 28 37 39 32 46 39 33 45 57 61
277 205 237 223 198 174 194 218 189 289 254 229 184 150 126 95 80 65 75 84 75 54 55 53 31 25 23 14 8 6 2 3 11 13 15 37 26 44 45 37 40 57 63
190 153 174 197 192 160 181 189 248 276 276 249 272 240 184 94 62 48 67 73 63 53 46 57 54 50 38 30 19 4 -5 -6 -7 -6 0 30 20 31 38 33 49 64 67
145 132 111 169 129 143 174 186 244 269 292 218 239 241 204 137 71 43 67 70 51 66 55 62 71 69 78 84 65 32 5 -9 6 29 41 49 41 48 47 46 58 73 79
144 172 119 138 131 135 167 196 238 219 250 195 203 231 284 180 161 97 49 70 100 102 85 76 84 97 102 119 114 91 73 41 4 17 68 125 133 138 123 111 97 93 97
215 165 215 181 155 165 156 174 221 207 207 179 237 205 206 144 183 189 153 129 100 123 115 124 112 123 121 137 129 128 126 120 93 51 35 51 95 166 191 182 170 170 154
273 287 228 267 270 220 182 176 187 237 222 191 196 217 237 222 172 249 235 171 202 164 142 167 159 161 153 159 159 147 157 170 151 132 112 96 85 108 164 209 219 225 224
437 336 301 283 209 233 198 243 242 267 208 207 172 179 221 256 243 248 212 173 151 96 181 198 190 185 187 197 190 182 197 194 190 172 155 150 140 133 156 207 242 251 269
103 174 197 198 239 214 203 219 236 260 227 257 175 170 194 210 224 198 210 163 141 100 99 117 178 186 203 197 181 172 186 200 185 185 197 199 193 202 203 197 201 262 276
67 114 196 187 195 255 192 217 184 158 180 238 157 85 110 237 304 281 261 220 166 86 101 109 80 130 175 200 178 174 195 185 189 204 222 229 221 216 227 237 222 202 218
27 68 114 160 154 171 244 273 236 188 186 194 189 88 63 108 292 265 283 314 284 203 77 75 80 109 142 177 174 189 208 188 220 238 241 230 251 274 293 272 267 244 205
50 64 96 121 141 147 206 215 176 153 150 107 59 92 156 211 243 265 294 280 271 226 140 103 71 124 120 146 171 196 212 225 228 254 278 277 279 275 261 261 249 216 213
59 26 47 85 120 140 164 156 143 158 171 161 166 166 100 141 228 283 324 283 293 259 258 218 167 137 181 194 202 235 247 255 262 221 219 237 262 246 259 287 267 248 208
64 72 77 46 53 88 151 175 156 172 182 194 216 225 163 210 198 227 257 271 313 346 351 260 227 224 239 246 263 257 289 312 300 252 248 259 233 218 246 251 255 271 224
85 77 79 91 84 73 76 99 93 106 153 155 155 175 209 276 248 256 286 258 282 308 308 332 274 258 226 263 276 269 272 257 285 262 259 266 252 228 233 248 249 243 220
123 105 103 99 83 87 105 114 121 130 124 118 112 122 154 175 181 205 226 232 242 255 241 298 308 259 218 184 206 148 142 175 199 234 272 263 258 233 268 261 255 203 179
158 134 141 136 122 121 128 121 121 127 118 107 131 154 175 192 190 196 198 170 199 228 246 230 229 210 207 215 271 250 225 234 228 284 276 347 350 385 311 248 251 261 341
185 201 190 177 177 194 187 205 185 157 159 154 135 133 135 157 169 180 211 220 227 230 236 253 233 239 262 300 269 299 322 271 193 370 396 471 454 396 345 408 414 390 410
142 174 195 204 205 217 234 251 257 230 182 160 157 161 161 186 184 191 192 224 211 237 252 255 256 264 251 290 296 282 319 343 317 448 683 543 637 618 576 629 540 527 421
166 125 136 169 193 233 378 316 251 291 239 195 175 177 189 194 218 259 262 259 285 312 330 307 288 306 328 349 414 462 460 508 630 654 724 640 786 783 765 716 584 520 409
168 170 284 396 394 439 412 342 343 276 230 235 235 287 324 293 331 324 284 290 399 623 638 666 627 705 737 820 603 421 505 557 670 788 1081 651 735 809 754 736 519 503 442
194 216 312 382 457 411 392 322 280 277 320 308 524 547 476 437 409 305 385 401 603 761 798 877 853 876 744 725 859 738 581 595 774 775 784 650 825 746 776 507 472 419 378
Wind_Speed
38 55 55 37 28 31 31 28 22 23 22 22 13 9 6 5 5 8 9 16 15 13 14 18 18 15 13 13 14 15 15 15 15 15 16 17 18 19 21 22 24 24 25
63 69 48 41 29 32 30 30 26 26 23 21 16 12 10 8 5 4 6 11 11 8 9 13 16 14 12 10 10 10 10 12 12 12 14 15 16 18 19 21 21 22 23
66 56 55 43 31 35 31 31 29 26 23 20 16 13 13 11 5 5 5 6 7 7 6 10 13 12 8 7 6 6 8 9 10 11 12 14 15 16 18 18 19 20 20
84 59 54 39 34 35 32 34 31 27 25 25 18 15 13 9 12 6 5 5 4 4 4 5 8 7 3 2 3 6 7 10 13 12 12 14 14 16 17 18 17 17 17
64 57 47 37 37 34 33 34 31 27 23 19 15 15 16 13 8 13 9 9 7 6 9 7 5 4 3 5 6 8 11 16 18 15 13 13 15 17 19 20 19 16 13
55 58 49 44 38 35 32 34 33 26 25 20 19 18 14 16 15 14 14 16 12 11 13 13 13 14 10 13 12 13 18 22 22 21 18 16 17 17 18 20 18 15 13
51 47 44 48 40 34 34 34 33 27 25 19 17 24 25 22 13 14 15 15 19 17 18 19 21 23 23 18 20 23 26 30 30 28 25 20 20 23 21 22 18 16 16
42 42 37 43 32 32 34 34 33 30 31 23 27 25 29 28 24 22 21 20 20 27 26 26 26 28 30 31 33 28 31 35 36 32 30 26 26 23 24 24 21 20 20
23 42 38 32 30 31 34 35 35 32 28 28 26 31 33 33 30 32 25 24 29 32 34 37 35 36 37 39 38 37 35 38 44 43 34 24 27 26 27 25 26 28 28
25 29 31 32 32 36 34 38 37 34 32 33 41 40 32 27 32 39 36 32 31 33 32 40 45 44 43 44 45 47 47 45 45 44 45 42 38 37 35 34 34 34 35
23 32 35 41 37 36 40 39 40 38 39 38 39 35 37 32 30 38 37 40 47 44 46 49 51 49 43 40 45 50 50 49 40 41 39 36 42 48 44 42 41 41 41
30 29 40 38 47 37 38 42 41 42 45 46 40 35 34 33 30 35 40 47 54 52 46 48 40 38 38 39 41 45 45 44 42 38 37 39 41 44 48 48 47 47 49
15 25 36 44 43 43 39 39 45 47 52 48 49 48 37 35 40 44 49 56 58 55 55 41 29 30 39 34 34 34 37 37 38 40 40 42 46 49 49 50 51 52 53
15 22 29 35 35 38 47 44 48 57 53 58 67 61 59 44 49 55 57 56 58 66 64 51 46 37 44 59 42 35 37 38 42 45 46 48 48 48 52 53 54 56 58
22 23 19 21 21 31 37 39 47 46 45 51 69 59 44 48 47 49 53 55 60 64 76 65 64 53 52 54 49 59 60 57 50 50 54 56 57 57 58 59 62 58 58
17 15 21 18 21 21 34 35 31 31 35 34 38 41 43 50 51 53 55 55 56 64 88 80 81 78 69 68 62 60 65 64 63 59 58 60 63 67 68 70 67 61 63
14 13 17 27 27 22 23 26 29 34 39 40 40 40 43 39 48 53 59 60 58 65 73 78 92 84 76 67 69 73 74 74 74 70 64 64 69 69 68 66 67 66 66
9 13 13 22 27 30 27 31 36 32 36 40 41 42 45 50 51 50 54 58 65 65 64 70 75 81 77 75 77 76 79 79 78 73 68 70 71 70 69 68 70 75 74
18 21 23 21 23 25 29 32 34 39 41 43 45 46 47 53 51 53 57 62 66 68 71 71 70 74 78 75 76 78 77 80 77 72 74 72 67 67 67 69 71 73 76
14 17 21 25 27 26 29 32 36 39 42 45 48 49 50 52 53 56 61 62 65 70 72 74 76 76 79 79 80 82 88 79 81 78 75 71 71 70 70 71 77 74 68
15 16 18 22 25 29 30 33 37 42 47 52 54 54 56 58 59 60 65 65 68 72 74 76 78 78 78 78 76 79 82 85 83 78 79 78 74 76 76 73 68 59 55
25 25 25 26 28 30 33 38 40 43 48 52 56 60 64 66 65 66 68 68 70 73 74 76 79 79 77 78 78 76 76 80 87 70 74 79 72 79 73 65 60 55 55
38 34 35 36 36 40 42 43 43 47 52 53 55 58 62 63 62 66 66 67 70 73 76 78 79 79 84 79 76 77 75 76 82 80 75 86 78 70 68 61 55 55 49
65 65 54 48 50 50 69 59 49 51 54 56 59 63 68 69 67 67 69 70 71 76 81 83 88 97 98 95 87 84 84 81 77 78 76 84 69 72 64 57 51 50 49
65 63 61 62 65 62 76 76 74 64 62 63 64 77 79 80 80 81 75 74 75 72 69 72 70 74 76 80 83 85 91 86 88 79 76 70 69 65 63 59 51 52 49
57 56 56 58 61 67 75 78 76 74 78 77 66 68 77 81 84 87 81 81 74 71 68 68 65 59 63 66 67 70 73 78 73 74 75 63 61 61 67 62 53 49 48
Wind_Direction
245 230 220 214 206 201 200 200 187 199 197 213 203 182 193 179 133 127 114 116 109 107 102 103 98 91 85 78 73 67 60 52 45 34 36 25 19 23 29 32 39 30 34
233 218 214 214 202 190 178 180 177 199 206 217 216 214 221 223 161 169 141 122 119 119 114 109 106 103 92 79 67 59 46 40 24 14 28 22 15 22 22 23 21 25 31
225 224 213 215 198 201 193 195 199 203 209 221 214 208 227 231 194 177 175 142 136 133 128 120 117 112 103 81 54 26 25 20 4 7 10 15 12 6 6 8 6 17 27
220 214 211 206 205 198 198 191 195 201 219 228 222 220 229 220 245 222 220 210 203 177 174 155 135 126 111 49 9 346 351 337 327 340 353 355 352 352 348 348 359 13 23
204 204 207 204 207 192 194 194 201 195 212 217 211 222 243 245 224 252 242 241 224 229 251 229 211 234 258 285 299 307 308 307 311 324 339 339 335 336 331 330 336 353 13
201 206 213 213 204 200 196 199 182 215 219 218 237 244 244 253 260 255 248 258 247 250 250 256 263 270 265 277 284 291 294 296 302 308 316 324 324 327 326 323 330 342 349
207 211 216 216 212 190 195 203 213 207 225 217 235 258 265 266 251 259 260 260 260 261 261 263 269 274 276 273 279 285 290 291 293 298 302 309 311 313 313 312 316 320 321
219 221 219 216 196 190 192 199 202 223 239 222 248 249 259 270 268 266 264 262 264 268 268 267 269 273 278 280 280 279 284 288 290 291 295 299 299 302 303 302 300 298 300
198 222 223 203 199 198 197 207 215 217 225 230 243 260 263 269 268 272 258 264 270 271 273 273 272 274 276 279 281 279 277 282 286 290 289 281 285 287 290 289 290 292 291
207 188 209 215 210 227 217 222 227 228 233 230 254 258 266 279 272 276 276 270 269 270 268 274 274 275 277 279 279 279 280 279 280 284 289 291 286 283 282 281 281 282 284
212 222 217 229 232 232 237 231 234 239 243 243 244 251 262 273 278 279 281 276 276 277 275 274 275 277 277 277 280 280 279 280 277 276 275 273 284 289 284 281 280 278 277
236 219 235 231 240 240 244 241 240 246 249 254 246 245 245 256 264 274 280 284 285 277 276 277 275 274 276 278 277 278 279 278 276 270 266 267 272 279 282 281 277 276 276
241 226 240 242 244 242 240 243 247 252 256 257 260 257 245 246 266 273 277 281 277 281 285 285 269 267 279 276 270 261 268 261 259 255 263 272 278 279 277 276 278 279 280
187 184 235 247 247 239 245 252 252 255 258 264 259 262 265 257 264 270 271 277 282 281 283 290 291 282 282 281 276 254 269 265 252 258 264 268 272 276 279 278 279 276 279
162 173 200 225 221 242 248 253 254 254 260 258 260 260 254 263 266 267 271 275 281 283 282 287 290 290 289 286 281 282 285 285 280 274 267 268 269 278 283 281 284 280 276
145 163 183 212 242 233 250 252 253 249 235 236 226 239 251 264 267 269 272 277 281 284 285 284 283 290 288 287 285 283 286 285 285 281 280 275 275 281 286 287 289 286 284
154 165 178 186 193 217 235 243 249 257 256 254 249 245 230 248 266 270 272 274 274 284 287 290 281 285 289 287 286 286 287 288 289 286 280 280 283 283 283 283 285 290 290
176 184 196 195 204 208 222 219 217 228 229 229 238 250 243 266 264 263 270 269 275 279 281 285 286 286 288 288 287 287 287 287 287 286 283 285 285 285 284 283 284 289 293
191 196 201 212 218 228 236 240 235 241 248 254 257 258 258 269 263 268 272 275 278 280 282 283 283 287 288 290 290 290 290 290 289 285 286 285 281 282 282 284 288 290 292
216 218 220 220 223 235 241 242 246 253 256 260 265 263 265 265 263 269 274 275 278 281 284 283 284 285 288 290 290 292 293 293 292 292 290 287 289 287 286 289 291 292 292
258 250 244 245 246 242 250 255 261 263 265 268 270 269 269 269 267 267 275 275 279 280 281 283 284 286 287 289 288 291 291 294 292 292 292 292 290 291 291 292 293 290 290
282 274 265 261 261 259 253 250 257 266 268 270 270 273 274 274 268 266 268 265 272 278 278 280 283 283 284 286 289 288 289 291 292 293 291 292 292 292 293 292 291 289 287
292 285 280 279 274 278 276 269 262 264 270 272 272 274 276 276 273 276 274 267 266 265 266 275 278 280 286 286 285 286 287 288 289 294 293 292 298 292 297 296 294 291 289
297 294 291 289 288 289 293 287 269 267 272 271 273 276 278 277 275 275 276 276 275 278 279 277 278 285 287 289 288 288 289 292 296 299 298 293 297 296 299 298 297 295 293
304 305 305 301 296 296 298 295 292 284 278 279 279 287 287 285 285 282 274 275 279 283 292 292 288 294 296 296 295 290 288 287 290 294 301 294 297 299 300 301 301 301 300
313 312 311 310 309 303 305 301 296 292 290 290 294 294 297 294 290 288 282 281 278 284 288 294 294 294 302 306 309 305 299 294 294 297 303 295 303 300 300 298 301 307 303